TimeCDT,TemperatureF,Dew PointF,Humidity,Sea Level PressureIn,VisibilityMPH,Wind Direction,Wind SpeedMPH,Gust SpeedMPH,PrecipitationIn,Events,Conditions,WindDirDegrees,DateUTC
12:54 AM,51.1,41.0,68,30.08,10.0,West,5.8,-,N/A,,Clear,260,2012-10-15 05:54:00
1:54 AM,50.0,41.0,71,30.07,10.0,WSW,5.8,-,N/A,,Clear,250,2012-10-15 06:54:00
2:54 AM,48.9,41.0,74,30.06,10.0,WSW,9.2,-,N/A,,Clear,240,2012-10-15 07:54:00
3:54 AM,48.0,41.0,77,30.05,10.0,West,6.9,-,N/A,,Clear,260,2012-10-15 08:54:00
4:54 AM,48.0,41.0,77,30.03,10.0,West,8.1,-,N/A,,Clear,260,2012-10-15 09:54:00
5:54 AM,48.0,41.0,77,30.03,10.0,WSW,8.1,-,N/A,,Clear,250,2012-10-15 10:54:00
6:54 AM,48.9,39.9,71,30.03,10.0,SSW,5.8,-,N/A,,Clear,210,2012-10-15 11:54:00
7:54 AM,48.9,39.9,71,30.02,10.0,SSW,9.2,-,N/A,,Clear,200,2012-10-15 12:54:00
8:54 AM,52.0,41.0,66,30.02,10.0,SSW,5.8,-,N/A,,Clear,200,2012-10-15 13:54:00
9:54 AM,55.9,44.1,64,30.01,10.0,SW,10.4,-,N/A,,Clear,220,2012-10-15 14:54:00
10:54 AM,61.0,46.0,58,29.98,10.0,SW,9.2,-,N/A,,Clear,230,2012-10-15 15:54:00
11:54 AM,66.0,45.0,47,29.96,10.0,SW,8.1,-,N/A,,Clear,220,2012-10-15 16:54:00
12:54 PM,69.1,45.0,42,29.93,10.0,West,8.1,-,N/A,,Clear,270,2012-10-15 17:54:00
1:54 PM,73.0,45.0,37,29.89,10.0,WSW,8.1,-,N/A,,Clear,240,2012-10-15 18:54:00
2:54 PM,75.9,45.0,33,29.85,10.0,SW,5.8,-,N/A,,Clear,230,2012-10-15 19:54:00
3:54 PM,77.0,46.0,33,29.82,10.0,SSW,12.7,-,N/A,,Clear,210,2012-10-15 20:54:00
4:54 PM,78.1,45.0,31,29.81,10.0,SW,10.4,-,N/A,,Clear,220,2012-10-15 21:54:00
5:54 PM,77.0,45.0,32,29.79,10.0,SSW,5.8,-,N/A,,Clear,200,2012-10-15 22:54:00
6:54 PM,73.0,48.0,41,29.78,10.0,Calm,Calm,-,N/A,,Clear,0,2012-10-15 23:54:00
7:54 PM,64.9,48.0,54,29.79,10.0,SE,3.5,-,N/A,,Clear,130,2012-10-16 00:54:00
8:54 PM,64.0,46.9,54,29.79,10.0,SE,5.8,-,N/A,,Clear,140,2012-10-16 01:54:00
9:54 PM,61.0,45.0,56,29.77,10.0,SSE,6.9,-,N/A,,Clear,160,2012-10-16 02:54:00
10:54 PM,57.9,43.0,58,29.76,10.0,South,9.2,-,N/A,,Clear,190,2012-10-16 03:54:00
11:54 PM,55.9,41.0,57,29.76,10.0,South,5.8,-,N/A,,Clear,180,2012-10-16 04:54:00